This is the latest recevied weather packets stored in our database for station/object AB0TJ. If no packets are shown the sender has not sent any weather packets the latest 10 day(s).
| Time | Temp. | Humidity | Pressure | Rain* | Wind** | Luminosity | Snow |
|---|---|---|---|---|---|---|---|
| 1777627589 | 7.22° C | 52% | 1017.6 hPa | 0 mm | - | 0 W/m² | - |
| 1777627009 | 7.78° C | 52% | 1017.5 hPa | 0 mm | - | 0 W/m² | - |
| 1777626429 | 7.22° C | 52% | 1017.6 hPa | 0 mm | - | 0 W/m² | - |
| 1777625914 | 6.67° C | 53% | 1017.5 hPa | 0 mm | - | 0 W/m² | - |
| 1777625339 | 7.22° C | 53% | 1017.6 hPa | 0 mm | - | 0 W/m² | - |
| 1777624839 | 7.22° C | 53% | 1017.4 hPa | 0 mm | - | 0 W/m² | - |
| 1777624264 | 7.78° C | 52% | 1017.8 hPa | 0 mm | - | 0 W/m² | - |
| 1777623672 | 8.33° C | 50% | 1017.5 hPa | 0 mm | - | 0 W/m² | - |
| 1777623159 | 8.33° C | 49% | 1017.8 hPa | 0 mm | - | 0 W/m² | - |
| 1777622607 | 8.89° C | 47% | 1017.3 hPa | 0 mm | - | 0 W/m² | - |
| 1777622034 | 8.89° C | 47% | 1017.5 hPa | 0 mm | - | 0 W/m² | - |
| 1777621484 | 8.89° C | 47% | 1017.7 hPa | 0 mm | - | 0 W/m² | - |
| 1777620919 | 10° C | 45% | 1017.5 hPa | 0 mm | - | 0 W/m² | - |
| 1777620404 | 10.56° C | 43% | 1017.7 hPa | 0 mm | - | 0 W/m² | - |
| 1777619869 | 10.56° C | 42% | 1017.3 hPa | 0 mm | - | 0 W/m² | - |
| 1777619272 | 11.11° C | 42% | 1017.3 hPa | 0 mm | - | 0 W/m² | - |
| 1777618729 | 10.56° C | 41% | 1017.5 hPa | 0 mm | - | 0 W/m² | - |
| 1777618194 | 10.56° C | 41% | 1017.3 hPa | 0 mm | - | 0 W/m² | - |
| 1777617684 | 11.11° C | 40% | 1017.5 hPa | 0 mm | - | 0 W/m² | - |
| 1777617116 | 11.11° C | 40% | 1017.3 hPa | 0 mm | - | 0 W/m² | - |
| 1777616619 | 11.11° C | 39% | 1017.4 hPa | 0 mm | - | 0 W/m² | - |
| 1777616109 | 11.11° C | 39% | 1017.3 hPa | 0 mm | - | 0 W/m² | - |
| 1777615529 | 11.11° C | 39% | 1017.3 hPa | 0 mm | - | 0 W/m² | - |
| 1777614959 | 11.11° C | 38% | 1017.4 hPa | 0 mm | - | 0 W/m² | - |
| 1777614463 | 11.11° C | 39% | 1017.1 hPa | 0 mm | - | 0 W/m² | - |
* Rain latest hour (hover to see other rain measurements)
** Current wind speed in m/s (hover to see current wind gust speed)